Dewpoint
29 28 27 27 28 28 28 29 31 32 32 33 36 37 37 37 37 38 37 35 32 29
24 26 27 27 28 28 28 30 30 31 31 32 32 33 35 35 34 34 34 36 36 33
21 23 24 25 26 27 28 28 28 29 30 31 31 32 32 32 32 32 32 31 32 31
19 20 21 22 24 25 25 26 25 26 28 29 29 31 31 31 31 31 32 32 32 31
16 17 18 20 21 22 24 25 25 24 23 23 26 28 29 29 30 29 29 30 30 30
11 13 15 17 19 20 21 23 23 24 24 23 23 23 25 26 26 27 27 28 28 28
6 9 12 14 16 17 19 20 21 22 23 24 24 24 24 22 21 23 22 24 25 25
3 5 6 9 11 12 15 17 19 20 20 21 24 26 24 25 24 22 16 17 17 15
1 2 4 5 6 7 10 12 15 17 18 18 20 26 29 27 24 24 24 20 20 21
-2 -1 0 2 3 5 6 8 9 11 14 15 16 21 23 24 24 24 24 24 24 24
-2 -3 -1 -1 1 5 5 6 5 9 9 10 13 18 20 25 20 21 23 24 24 24
-3 -3 -4 -3 0 3 3 3 2 2 3 2 5 11 15 19 21 20 20 20 23 25
-3 -2 -3 -2 -0 1 2 2 -0 -0 1 3 3 5 8 11 15 17 18 19 19 20
-3 -2 -3 -2 -2 -1 -1 -0 -1 1 2 3 3 4 8 9 9 10 12 14 15 18
Wind_Speed
15 14 13 14 14 11 7 7 12 8 10 12 7 5 13 11 6 4 5 5 4 5
21 18 16 14 12 10 13 8 16 10 12 9 4 9 10 8 10 7 3 2 5 1
21 20 18 17 16 15 13 15 14 11 14 11 9 10 8 7 6 8 9 9 9 6
20 20 19 19 17 16 15 14 14 15 11 11 11 13 8 7 6 8 7 7 5 8
19 19 20 20 19 18 16 15 14 15 16 15 14 10 7 8 7 5 5 6 7 4
19 20 20 19 18 18 17 17 17 16 16 16 14 13 9 8 9 8 5 4 1 4
17 16 16 16 17 18 17 17 16 16 15 14 12 13 14 14 10 7 6 5 4 2
14 14 15 16 16 16 17 16 15 15 15 14 12 7 8 7 9 10 11 9 7 6
13 13 14 14 15 15 16 16 15 16 14 15 12 18 17 2 6 6 5 5 7 9
13 13 14 11 12 14 14 13 13 14 14 14 14 16 16 16 9 6 5 5 4 4
12 12 11 12 12 11 11 11 11 12 14 13 12 15 15 14 11 10 8 6 5 5
7 10 11 12 11 8 10 9 9 10 11 12 12 15 15 13 11 7 8 8 8 6
1 3 6 7 9 6 7 7 8 9 9 11 11 15 14 12 7 9 8 6 7 10
2 2 1 3 4 7 9 9 10 8 8 7 9 11 12 12 8 8 7 8 7 6
Wind_Direction
38 49 51 45 48 62 50 48 54 50 64 50 45 105 103 96 54 251 137 111 82 83
32 36 44 44 46 42 41 27 57 37 61 73 77 57 74 97 96 90 54 163 155 71
33 33 35 38 39 37 35 36 42 39 51 49 50 76 88 100 107 92 77 73 79 80
30 32 36 36 32 33 37 34 34 36 38 47 52 50 57 85 103 134 139 120 115 91
28 30 34 32 30 29 31 30 35 41 41 37 37 47 56 61 69 86 110 121 131 134
29 29 28 26 27 29 32 31 32 32 35 39 36 39 36 55 65 63 58 43 67 139
26 22 23 26 27 27 27 30 31 33 32 27 30 40 42 44 50 74 80 83 65 33
22 24 25 25 24 25 27 25 27 30 30 26 20 12 13 40 49 45 51 55 66 93
27 27 26 25 23 24 22 22 23 24 25 20 8 16 21 8 20 26 31 27 26 25
35 34 26 21 27 27 19 13 18 19 20 14 1 9 16 49 37 21 1 343 340 330
29 29 25 31 28 25 15 12 8 28 24 16 6 3 2 15 23 16 9 344 329 317
24 16 13 19 16 19 14 9 11 20 13 359 356 349 347 8 6 0 349 339 348 319
136 26 14 359 357 355 359 14 5 356 6 344 345 339 337 337 350 345 340 307 304 300
284 330 335 324 331 339 352 351 355 351 338 337 337 337 330 327 321 320 311 316 318 320